Weather History for Sault Ste Marie, MI

Change the Weather History Date:

Wednesday, October 29, 2014

  Actual Average Record
Temperature  
Mean Temperature 41 °F 41 °F  
Max Temperature 44 °F 48 °F 69 °F (1989)
Min Temperature 37 °F 34 °F 17 °F (1925)
Degree Days  
Heating Degree Days 24 24  
Month to date heating degree days 549 554  
Since 1 July heating degree days 980 955  
Cooling Degree Days 0 0  
Month to date cooling degree days 0 0  
Year to date cooling degree days 113 195  
Moisture  
Dew Point 34 °F    
Average Humidity 78    
Maximum Humidity 86    
Minimum Humidity 70    
Precipitation  
Precipitation 0.03 in 0.12 in 1.23 in (1932)
Month to date precipitation 7.40 3.57  
Year to date precipitation 30.29 26.56  
Snow  
Snow 0.00 in 0.10 in 2.00 in (1933)
Month to date snowfall 0.0 1.3  
Since 1 July snowfall 0.0 1.3  
Snow Depth 0.00 in    
Sea Level Pressure  
Sea Level Pressure 29.84 in    
Wind  
Wind Speed 11 mph (WNW)    
Max Wind Speed 20 mph    
Max Gust Speed 28 mph    
Visibility 10 miles    
Events Rain    
T = Trace of Precipitation, MM = Missing Value Source: NWS Daily Summary

Daily Weather History Graph

Daily Weather History Graph

Search for Another Location

Airport:

Trip Planner

Search our weather history database for the weather conditions in past years. The results will help you decide how hot, cold, wet, or windy it might be!

Date:

Astronomy

Oct. 29, 2014 Rise Set
Actual Time 8:14 AM EDT 6:26 PM EDT
Civil Twilight 7:43 AM EDT 6:58 PM EDT
Nautical Twilight 7:07 AM EDT 7:33 PM EDT
Astronomical Twilight 6:32 AM EDT 8:08 PM EDT
Moon 1:37 PM EDT (10/29) 11:32 PM EDT (10/29)
Length of Visible Light 11h 14m
Length of Day
10h 12m
Waxing Crescent, 34% of the Moon is Illuminated
Oct 29
Waxing Crescent
Oct 30
First Quarter
Nov 6
Full
Nov 14
Last Quarter
Nov 22
New

Hourly Weather History & Observations

Time (EDT) Temp. Windchill Dew Point Humidity Pressure Visibility Wind Dir Wind Speed Gust Speed Precip Events Conditions
12:55 AM 43.0 °F 36.8 °F 37.0 °F 80% 29.68 in 10.0 mi SW 11.5 mph - N/A   Mostly Cloudy
1:55 AM 44.1 °F 38.1 °F 37.0 °F 76% 29.68 in 10.0 mi WSW 11.5 mph - N/A   Overcast
2:55 AM 44.1 °F 38.1 °F 37.0 °F 76% 29.68 in 10.0 mi West 11.5 mph - N/A   Overcast
3:55 AM 43.0 °F 37.2 °F 37.0 °F 80% 29.69 in 10.0 mi West 10.4 mph - N/A   Overcast
4:03 AM 43.0 °F 37.7 °F 37.0 °F 80% 29.68 in 10.0 mi WSW 9.2 mph - N/A   Overcast
4:26 AM 43.0 °F 37.7 °F 37.0 °F 80% 29.68 in 10.0 mi West 9.2 mph - N/A   Overcast
4:55 AM 42.1 °F 37.1 °F 36.0 °F 79% 29.69 in 10.0 mi WSW 8.1 mph - N/A   Mostly Cloudy
5:55 AM 41.0 °F 34.3 °F 35.1 °F 79% 29.70 in 10.0 mi West 11.5 mph - N/A   Scattered Clouds
6:42 AM 42.1 °F 34.9 °F 35.1 °F 76% 29.71 in 10.0 mi West 13.8 mph - N/A   Overcast
6:55 AM 42.1 °F 34.5 °F 34.0 °F 73% 29.72 in 10.0 mi West 15.0 mph 19.6 mph N/A   Overcast
7:55 AM 41.0 °F 34.3 °F 37.0 °F 86% 29.74 in 10.0 mi West 11.5 mph 20.7 mph N/A   Overcast
8:00 AM 41.0 °F 32.8 °F 37.0 °F 86% 29.73 in 8.0 mi West 16.1 mph 20.7 mph 0.00 in Rain Light Rain
8:27 AM 39.9 °F 32.9 °F 36.0 °F 86% 29.74 in 7.0 mi West 11.5 mph - 0.00 in Rain Light Rain
8:38 AM 39.9 °F 33.9 °F 37.0 °F 89% 29.74 in 6.0 mi West 9.2 mph - 0.02 in Rain Light Rain
8:55 AM 39.9 °F 33.9 °F 36.0 °F 86% 29.77 in 10.0 mi WNW 9.2 mph 18.4 mph 0.02 in Rain Light Rain
9:08 AM 39.9 °F 32.9 °F 36.0 °F 86% 29.76 in 10.0 mi WNW 11.5 mph 19.6 mph 0.00 in Rain Light Rain
9:46 AM 41.0 °F 34.7 °F 36.0 °F 82% 29.77 in 10.0 mi WNW 10.4 mph 19.6 mph 0.01 in   Overcast
9:55 AM 41.0 °F 34.3 °F 35.1 °F 79% 29.79 in 10.0 mi WNW 11.5 mph 20.7 mph 0.01 in   Mostly Cloudy
10:17 AM 41.0 °F 33.5 °F 34.0 °F 76% 29.79 in 10.0 mi WNW 13.8 mph 23.0 mph N/A   Overcast
10:55 AM 41.0 °F 32.8 °F 34.0 °F 76% 29.82 in 10.0 mi NW 16.1 mph 23.0 mph N/A   Overcast
11:55 AM 41.0 °F 33.1 °F 34.0 °F 76% 29.85 in 10.0 mi NW 15.0 mph 21.9 mph 0.00 in   Overcast
12:55 PM 41.0 °F 33.9 °F 35.1 °F 79% 29.87 in 7.0 mi NW 12.7 mph 23.0 mph 0.00 in Rain Light Rain
1:55 PM 41.0 °F 33.9 °F 34.0 °F 76% 29.89 in 10.0 mi NW 12.7 mph 27.6 mph 0.00 in Rain Light Rain
2:55 PM 41.0 °F 33.5 °F 35.1 °F 79% 29.91 in 9.0 mi NW 13.8 mph - 0.00 in Rain Light Rain
3:55 PM 42.1 °F 34.9 °F 33.1 °F 70% 29.93 in 10.0 mi WNW 13.8 mph 21.9 mph 0.00 in   Overcast
4:55 PM 41.0 °F 32.8 °F 33.1 °F 73% 29.96 in 10.0 mi WNW 16.1 mph 21.9 mph 0.00 in Rain Light Rain
5:55 PM 39.0 °F 30.6 °F 34.0 °F 82% 29.98 in 10.0 mi WNW 15.0 mph 23.0 mph 0.00 in Rain Light Rain
6:55 PM 39.0 °F 31.8 °F 32.0 °F 76% 30.00 in 10.0 mi WNW 11.5 mph - 0.00 in   Mostly Cloudy
7:31 PM 39.9 °F 33.4 °F 30.0 °F 68% 30.00 in 10.0 mi WNW 10.4 mph 18.4 mph N/A   Mostly Cloudy
7:42 PM 39.0 °F 31.8 °F 30.9 °F 73% 30.00 in 10.0 mi WNW 11.5 mph - N/A   Overcast
7:55 PM 39.9 °F 32.9 °F 30.9 °F 70% 30.01 in 10.0 mi NW 11.5 mph - N/A   Overcast
8:26 PM 39.0 °F 31.4 °F 30.0 °F 70% 30.01 in 10.0 mi WNW 12.7 mph 18.4 mph N/A   Mostly Cloudy
8:55 PM 39.0 °F 32.8 °F 30.0 °F 70% 30.03 in 10.0 mi NW 9.2 mph - N/A   Mostly Cloudy
9:55 PM 37.9 °F 32.7 °F 32.0 °F 79% 30.03 in 10.0 mi WNW 6.9 mph - 0.00 in Rain Light Rain
10:55 PM 37.9 °F 34.4 °F 33.1 °F 83% 30.04 in 10.0 mi NW 4.6 mph - 0.00 in Rain Light Rain
11:55 PM 37.9 °F - 34.0 °F 86% 30.04 in 10.0 mi Calm Calm - 0.00 in   Overcast